Weather History for CYCY - April, 2013

Change the Weather History Date:

Saturday, April 20, 2013

  Actual Average (WUND) Record (WUND)
Temperature  
Mean Temperature -12 °F -  
Max Temperature -3 °F 19 °F - (-1)
Min Temperature -20 °F 3 °F - (-1)
Degree Days  
Heating Degree Days 76    
Moisture  
Dew Point -17 °F    
Average Humidity 71    
Maximum Humidity 84    
Minimum Humidity 51    
Precipitation  
Precipitation 0.00 in 0.02 in - ()
Sea Level Pressure  
Sea Level Pressure 29.79 in    
Wind  
Wind Speed 3 mph ()    
Max Wind Speed 6 mph    
Max Gust Speed -    
Visibility 8.6 miles    
Events Snow    
Averages and records for this station are not official NWS values.
T = Trace of Precipitation, MM = Missing Value Source: Averaged Metar Reports

Daily Weather History Graph

Daily Weather History Graph

Search for Another Location

Airport or City:

Trip Planner

Search our weather history database for the weather conditions in past years. The results will help you decide how hot, cold, wet, or windy it might be!

Date:

Astronomy

Apr. 20, 2013 Rise Set
Actual Time 4:58 AM ADT 10:11 PM ADT
Civil Twilight 3:17 AM ADT 11:56 PM ADT
Nautical Twilight Sun does not set Sun does not set
Astronomical Twilight Sun does not set Sun does not set
Moon 1:49 PM ADT (4/20) 4:57 AM ADT (4/20)
Length of Visible Light 20h 39m
Length of Day
17h 12m
Waxing Gibbous, 70% of the Moon is Illuminated
Apr 20
Waxing Gibbous
Apr 25
Full
May 2
Last Quarter
May 9
New
May 18
First Quarter

Hourly Weather History & Observations

Time (ADT) Temp. Windchill Dew Point Humidity Pressure Visibility Wind Dir Wind Speed Gust Speed Precip Events Conditions
12:00 AM -16 °F - -23 °F 56% 29.81 in 10 mi West 3.5 mph - -  
12:00 AM -16.6 °F -26.8 °F -22.0 °F 76% 29.81 in 9.0 mi West 3.5 mph - N/A   Clear
1:00 AM -16.6 °F - -22.0 °F 76% 29.80 in 9.0 mi West 2.3 mph - N/A   Clear
2:00 AM -16.6 °F -26.8 °F -23.8 °F 70% 29.81 in 9.0 mi West 3.5 mph - N/A   Clear
3:00 AM -17 °F - -24 °F 57% 29.81 in 10 mi West 2.3 mph - -  
3:00 AM -16.6 °F - -23.8 °F 70% 29.80 in 9.0 mi West 2.3 mph - N/A   Scattered Clouds
4:00 AM -14.8 °F -24.8 °F -22.0 °F 70% 29.81 in 9.0 mi NW 3.5 mph - N/A   Clear
5:00 AM -16.6 °F -26.8 °F -25.6 °F 64% 29.81 in 9.0 mi NNW 3.5 mph - N/A   Clear
6:00 AM -20.2 °F -35.5 °F -25.6 °F 76% 29.82 in 9.0 mi WNW 5.8 mph - N/A   Clear
7:00 AM -18.4 °F - -25.6 °F 70% 29.82 in 9.0 mi West 2.3 mph - N/A   Clear
8:00 AM -14.8 °F -24.8 °F -22.0 °F 70% 29.83 in 9.0 mi West 3.5 mph - N/A   Clear
9:00 AM -11 °F - -19 °F 51% 29.83 in 10 mi West 4.6 mph - -  
9:00 AM -11.2 °F -23.0 °F -20.2 °F 64% 29.83 in 9.0 mi West 4.6 mph - N/A   Clear
10:00 AM -9.4 °F - -18.4 °F 65% 29.83 in 25.0 mi Calm Calm - N/A   Scattered Clouds
11:00 AM -9.4 °F - -18.4 °F 65% 29.83 in 25.0 mi Calm Calm - N/A   Scattered Clouds
12:00 PM -8 °F - -16 °F 52% 29.82 in 10 mi SSW 1.2 mph - -  
12:00 PM -7.6 °F - -16.6 °F 65% 29.82 in 25.0 mi Calm Calm - N/A   Scattered Clouds
1:00 PM -7.6 °F - -14.8 °F 71% 29.81 in 25.0 mi Calm Calm - N/A   Mostly Cloudy
2:00 PM -4.0 °F - -11.2 °F 71% 29.80 in 25.0 mi Calm Calm - N/A   Mostly Cloudy
3:00 PM -4 °F - -8 °F 71% 29.79 in 10 mi North 3.5 mph - -  
3:00 PM -4.0 °F -12.4 °F -9.4 °F 78% 29.78 in 25.0 mi NNW 3.5 mph - N/A   Mostly Cloudy
4:00 PM -5.8 °F -18.4 °F -11.2 °F 77% 29.78 in 25.0 mi NE 5.8 mph - N/A   Mostly Cloudy
5:00 PM -5.8 °F -16.7 °F -11.2 °F 77% 29.78 in 25.0 mi East 4.6 mph - N/A   Mostly Cloudy
6:00 PM -6 °F - -11 °F 69% 29.78 in 10 mi NE 2.3 mph - -   Overcast
6:00 PM -5.8 °F - -11.2 °F 77% 29.77 in 25.0 mi NE 2.3 mph - N/A   Mostly Cloudy
7:00 PM -5.8 °F -16.7 °F -11.2 °F 77% 29.78 in 25.0 mi NNW 4.6 mph - N/A   Mostly Cloudy
8:00 PM -7.6 °F -20.6 °F -13.0 °F 77% 29.77 in 9.0 mi NNW 5.8 mph - N/A   Overcast
9:00 PM -10 °F - -15 °F 70% 29.77 in 10 mi NNW 5.8 mph - -  
9:00 PM -9.4 °F -22.7 °F -14.8 °F 77% 29.77 in 9.0 mi NNW 5.8 mph - N/A   Clear
9:52 PM -11.2 °F -24.8 °F -16.6 °F 77% 29.76 in 9.0 mi NW 5.8 mph - N/A Snow Light Snow
10:00 PM -11.2 °F -24.8 °F -16.6 °F 77% 29.77 in 9.0 mi NNW 5.8 mph - N/A Snow Light Snow
10:19 PM -11.2 °F -24.8 °F -14.8 °F 84% 29.76 in 5.0 mi NNW 5.8 mph - N/A Snow Light Snow
10:51 PM -11.2 °F -23.0 °F -16.6 °F 77% 29.76 in 6.0 mi NW 4.6 mph - N/A Snow Light Snow
11:00 PM -11.2 °F -23.0 °F -16.6 °F 77% 29.75 in 6.0 mi NNW 4.6 mph - N/A Snow Light Snow
11:03 PM -11.2 °F -23.0 °F -16.6 °F 77% 29.75 in 5.0 mi NNW 4.6 mph - N/A Snow Light Snow
11:15 PM -11.2 °F -23.0 °F -16.6 °F 77% 29.75 in 6.0 mi NNW 4.6 mph - N/A Snow Light Snow
11:58 PM -11.2 °F -20.6 °F -16.6 °F 77% 29.74 in 9.0 mi NW 3.5 mph - N/A   Scattered Clouds